Location: Zilina
(49.2170°N, 18.7330°E)
Time: 20:37:11
(UTC+02:00)

ISS - Pass Details

Date: 28 March 2019
Orbit: 408 x 410 km, 51.6° (Epoch: 22 April)

Event Time Altitude Azimuth Distance (km) Brightness Sun altitude
Rises 19:19:18 0° 266° (W) 2,335 1.4 -11.9°
Reaches altitude 10° 19:21:24 10° 271° (W) 1,474 0.3 -12.2°
Maximum altitude 19:24:40 59° 351° (N) 480 -3.4 -12.7°
Enters shadow 19:27:02 17° 69° (ENE) 1,118 -2.0 -13.1°
